Regional Weather Roundup
Issued by NWS

Home | Current Version | Previous Version | Text Only | Print | Product List | Glossary Off
Versions: 1 2 3 4 5 6 7 8 9 10 11 12 13 14 15 16 17 18 19 20 21 22 23 24 25 26 27 28 29 30 31 32 33 34 35 36 37 38 39 40 41 42 43 44 45 46 47 48 49 50

000
ASUS43 KMKX 010611
RWRWI

WISCONSIN REGIONAL WEATHER ROUNDUP
NATIONAL WEATHER SERVICE MILWAUKEE/SULLIVAN WI
100 AM CDT SAT AUG 01 2015

NOTE: "FAIR" INDICATES FEW OR NO CLOUDS BELOW 12,000 FEET WITH NO
SIGNIFICANT WEATHER AND/OR OBSTRUCTIONS TO VISIBILITY.

WIZ001-002-006>008-014>016-023>028-010700-
NORTHWEST WISCONSIN

CITY           SKY/WX    TMP DP  RH WIND       PRES   REMARKS
SUPERIOR ARPT  CLEAR     60  52  73 W8        29.94S
6HR MIN TEMP:  60; 6HR MAX TEMP:  76;

ASHLAND        CLEAR     56  52  86 SW5       29.93S
6HR MIN TEMP:  52; 6HR MAX TEMP:  70; 6HR PCP: TRACE;

HAYWARD        CLEAR     54  50  86 SW3       29.97S
6HR MIN TEMP:  53; 6HR MAX TEMP:  77;

SIREN          CLEAR     59  50  73 CALM      29.99S
6HR MIN TEMP:  59; 6HR MAX TEMP:  77;

CUMBERLAND     CLEAR     55  52  88 W6        29.99S
RICE LAKE      CLEAR     55  53  91 CALM      30.00S
6HR MIN TEMP:  55; 6HR MAX TEMP:  75;

CHETEK         CLEAR     58  55  88 E3        29.99S
6HR MIN TEMP:  58; 6HR MAX TEMP:  76;

LADYSMITH      CLEAR     60  53  77 CALM      29.99S
6HR MIN TEMP:  59; 6HR MAX TEMP:  76;

EAU CLAIRE     PTCLDY    60  53  77 SW3       29.98S
6HR MIN TEMP:  59; 6HR MAX TEMP:  78;

MENOMONIE      PTCLDY    64  55  73 SW6       30.00S
6HR MIN TEMP:  64; 6HR MAX TEMP:  78;

NEW RICHMOND   MOCLDY    63  55  77 W6        30.00F
6HR MIN TEMP:  62; 6HR MAX TEMP:  76;

OSCEOLA        PTCLDY    59  59 100 CALM      30.02S
6HR MIN TEMP:  59; 6HR MAX TEMP:  77;

$$

WIZ003>005-009-010-017-018-010700-
NORTH CENTRAL WISCONSIN

CITY           SKY/WX    TMP DP  RH WIND       PRES   REMARKS
MANITOWISH WTR FOG       51  51 100 CALM      29.94S VSB 1/2
6HR MIN TEMP:  51; 6HR MAX TEMP:  64;

ARBOR VITAE    CLEAR     57  55  94 CALM      29.94S
6HR MIN TEMP:  57; 6HR MAX TEMP:  64;

WOODRUFF       CLEAR     57  55  94 CALM      29.94S
6HR MIN TEMP:  57; 6HR MAX TEMP:  64;

RHINELANDER    CLEAR     55  53  93 W7        29.96S
6HR MIN TEMP:  53; 6HR MAX TEMP:  65;

EAGLE RIVER    FOG       53  53 100 SW3       29.94S VSB 3/4
6HR MIN TEMP:  50; 6HR MAX TEMP:  65;

LAND O LAKES   PTCLDY    54  53  97 W3        29.94S
6HR MIN TEMP:  53; 6HR MAX TEMP:  68;

PHILLIPS       CLEAR     57  52  82 CALM      29.96S
6HR MIN TEMP:  57; 6HR MAX TEMP:  67;

TOMAHAWK       CLEAR     54  52  93 W3        29.96S
6HR MIN TEMP:  51; 6HR MAX TEMP:  61;

MEDFORD        PTCLDY    59  52  77 W5        29.98S
6HR MIN TEMP:  59; 6HR MAX TEMP:  73;

MERRILL        NOT AVBL
$$

WIZ029-030-035-036-043>047-010700-
CENTRAL WISCONSIN

CITY           SKY/WX    TMP DP  RH WIND       PRES   REMARKS
WAUSAU         CLEAR     63  54  72 NW9       29.95S
6HR MIN TEMP:  63; 6HR MAX TEMP:  71; 6HR PCP: TRACE;

MOSINEE        CLEAR     59  54  82 W6        29.98S
MARSHFIELD     CLEAR     60  50  69 W5        29.98S
6HR MIN TEMP:  60; 6HR MAX TEMP:  76;

STEVENS POINT  CLEAR     64  51  63 W8        29.98S
6HR MIN TEMP:  56; 6HR MAX TEMP:  74;

WAUPACA        CLEAR     62  55  75 W6        29.96F
6HR MIN TEMP:  60; 6HR MAX TEMP:  80;

WAUTOMA        CLEAR     57  52  84 CALM      29.98S
6HR MIN TEMP:  57; 6HR MAX TEMP:  79;

WISC RAPIDS    CLEAR     61  51  70 W3        29.99S
6HR MIN TEMP:  61; 6HR MAX TEMP:  77;

CAMP DOUGLAS   CLEAR     52  52 100 CALM      29.99R
6HR MIN TEMP:  52; 6HR MAX TEMP:  75;

$$

WIZ011>013-019>022-031-037>040-048>050-010700-
NORTHEAST WISCONSIN

CITY           SKY/WX    TMP DP  RH WIND       PRES   REMARKS
ANTIGO         CLEAR     56  55  94 W7        29.96S
SHAWANO        PTCLDY    64  56  76 W5        29.94S
6HR MIN TEMP:  64; 6HR MAX TEMP:  72;

OCONTO         CLEAR     59  55  87 W3        29.91S
6HR MIN TEMP:  57; 6HR MAX TEMP:  77;

STURGEON BAY   MOCLDY    63  54  72 SW7       29.93S
6HR MIN TEMP:  63; 6HR MAX TEMP:  73;

GREEN BAY      CLOUDY    64  56  75 W7        29.93S
6HR MIN TEMP:  61; 6HR MAX TEMP:  78; 6HR PCP: TRACE;

MANITOWOC      MOCLDY    65  54  67 MISG      29.94S
6HR MIN TEMP:  65; 6HR MAX TEMP:  79;

APPLETON       CLEAR     64  52  63 W9        29.96S
CLINTONVILLE   CLEAR     61  54  77 W5        29.94S
OSHKOSH        CLEAR     65  52  62 W3        29.96S
6HR MIN TEMP:  64; 6HR MAX TEMP:  78;

$$

WIZ032>034-041-042-053>061-010700-
SOUTHWEST WISCONSIN

CITY           SKY/WX    TMP DP  RH WIND       PRES   REMARKS
LA CROSSE      CLEAR     65  58  78 S3        30.00S
6HR MIN TEMP:  64; 6HR MAX TEMP:  80;

SPARTA         CLEAR     54  51  91 CALM      30.01S
6HR MIN TEMP:  53; 6HR MAX TEMP:  79;

VIROQUA        PTCLDY    61  55  80 SW6       30.03S
6HR MIN TEMP:  61; 6HR MAX TEMP:  75;

BOSCOBEL       CLEAR     60  57  89 SW5       30.03R
6HR MIN TEMP:  59; 6HR MAX TEMP:  82;

PRAIRIE DU CHI CLEAR     62  56  82 CALM      30.03S
6HR MIN TEMP:  61; 6HR MAX TEMP:  81;

PLATTEVILLE    CLEAR     62  57  83 SW3       30.04S
6HR MIN TEMP:  62; 6HR MAX TEMP:  78;

$$

WIZ056-057-062-063-064-067-068-010700-
SOUTH CENTRAL WISCONSIN

CITY           SKY/WX    TMP DP  RH WIND       PRES   REMARKS
REEDSBURG      CLEAR     57  54  90 CALM      30.00S
6HR MIN TEMP:  56; 6HR MAX TEMP:  78;

BARABOO/DELLS  CLEAR     58  51  75 CALM      30.00S
6HR MIN TEMP:  58; 6HR MAX TEMP:  78;

LONE ROCK      CLEAR     56  53  90 CALM      30.02S
6HR MIN TEMP:  56; 6HR MAX TEMP:  80;

MINERAL POINT  CLEAR     61  55  82 W5        30.04S
MADISON        CLEAR     67  51  56 W6        29.99S
6HR MIN TEMP:  67; 6HR MAX TEMP:  78;

MIDDLETON      CLEAR     59  53  81 CALM      30.01S
6HR MIN TEMP:  56; 6HR MAX TEMP:  79;

WATERTOWN      CLEAR     58  55  92 CALM      29.98F
6HR MIN TEMP:  58; 6HR MAX TEMP:  77;

MONROE         CLEAR     63  52  67 W12       30.02S
JANESVILLE     CLEAR     61  52  72 CALM      30.00S
$$

WIZ051-052-058>065-066-070>072-010700-
SOUTHEAST WISCONSIN

CITY           SKY/WX    TMP DP  RH WIND       PRES   REMARKS
MILWAUKEE      PTCLDY    69  51  52 W5        29.97R
6HR MIN TEMP:  68; 6HR MAX TEMP:  81;

WAUKESHA       CLEAR     63  50  63 W7        29.99S
MILWAUKEE/TIMM CLEAR     63  50  63 W6        29.98S
RACINE         CLEAR     66  51  58 W6        29.99S
6HR MIN TEMP:  66; 6HR MAX TEMP:  80;

BURLINGTON     CLEAR     60  51  71 W6        29.98F
6HR MIN TEMP:  60; 6HR MAX TEMP:  77;

KENOSHA        CLEAR     63  52  67 NW7       29.98S
6HR MIN TEMP:  61; 6HR MAX TEMP:  79;

FOND DU LAC    PTCLDY    62  53  72 SW5       29.97S
6HR MIN TEMP:  62; 6HR MAX TEMP:  78;

SHEBOYGAN      PTCLDY    63  55  75 W6        29.95S
6HR MIN TEMP:  63; 6HR MAX TEMP:  78; 6HR PCP: TRACE;

WEST BEND      CLEAR     63  50  63 W7        29.97S
JUNEAU         CLEAR     59  53  80 CALM      29.99F
6HR MIN TEMP:  57; 6HR MAX TEMP:  76;

$$

LSZ147-162-010700-
LAKE SUPERIOR

STATION/POSITION TIME  TEMP    WIND        PRES    WAVE
                       AIR SEA DIR/SP/G            HT/PER
                 (UTC) (F)     (DEG/KT/KT) (MB)    (FT/S)
W MID LAKE BUOY  0550   58 53  260/ 12/ 14 1011.1R   2/ 3
DEVILS ISLAND    0600   63     230/ 12/ 13 1012.3S
PORT WING        0500   65     200/  6/ 11 1013.2R
SAXON HARBOR     0540   59                 1012.5R
$$

LMZ867-665-643>646-010700-
LAKE MICHIGAN

STATION/POSITION TIME  TEMP    WIND        PRES    WAVE
                       AIR SEA DIR/SP/G            HT/PER



USA.gov is the U.S. government's official web portal to all federal, state and local government web resources and services.